Location: Unspecified
(0.0000°N, 0.0000°E)
Time: 14:18:10
(UTC+00:00)

COSMOS-2414 - Pass Details

Date: 15 June 2023
Orbit: 908 x 965 km, 82.9° (Epoch: 21 September)

Event Time Altitude Azimuth Distance (km) Brightness Sun altitude
Rises 04:17:28 0° 5° (N) 3,558 9.3 -23.5°
Reaches altitude 10° 04:19:59 10° 9° (N) 2,610 8.7 -22.9°
Maximum altitude 04:25:48 58° 87° (E) 1,053 6.4 -21.6°
Drops below altitude 10° 04:31:35 10° 165° (SSE) 2,595 8.1 -20.3°
Sets 04:34:05 0° 169° (S) 3,536 8.8 -19.7°
